Temperature
19 18 19 19 19 19 19 19 19 19 19 20 20 20 20 20 20 20 20 19 19 19 19 19 19 19 19 19 19 19 19 19 19 19 19 19 19 19 19 19 18 18 19
19 18 20 19 19 19 19 19 19 19 19 20 20 20 20 20 20 19 19 19 19 19 19 19 19 19 19 19 19 19 19 19 19 19 19 19 19 19 19 18 18 18 19
19 18 19 19 19 19 19 19 19 19 19 19 19 19 19 19 19 19 19 19 19 19 19 19 19 19 19 19 19 19 19 19 19 19 18 18 18 18 18 18 18 18 18
18 18 18 19 19 19 19 19 19 19 19 19 19 19 19 19 19 19 19 19 19 19 19 19 19 19 19 19 19 19 19 19 19 19 18 18 17 18 18 18 18 18 18
18 18 18 19 19 19 19 19 19 19 19 19 19 19 19 19 19 19 19 19 19 19 19 18 18 18 18 18 18 18 18 18 19 18 17 17 18 18 18 18 18 18 18
18 18 18 19 18 18 18 18 18 18 19 19 19 19 19 19 19 19 19 19 19 19 19 18 18 18 18 18 18 18 18 18 18 17 17 17 17 18 18 18 18 18 18
18 18 18 18 18 18 18 18 18 18 18 18 18 18 18 18 18 18 18 18 18 19 19 18 18 18 18 18 18 18 18 18 17 17 17 17 18 18 18 18 18 18 18
18 18 18 18 18 18 18 18 18 18 18 18 18 18 18 18 18 18 18 18 18 18 18 18 18 18 18 18 18 18 18 18 17 17 17 17 18 18 18 18 18 18 18
18 18 18 17 17 18 18 18 18 18 18 18 18 18 18 18 18 18 18 18 18 18 18 18 18 18 18 18 18 18 18 18 17 17 17 17 18 18 18 18 18 18 18
17 17 17 17 17 17 17 17 18 18 18 18 18 18 18 18 18 18 18 18 18 18 18 18 18 18 18 18 18 18 18 18 17 17 17 17 18 18 18 18 18 18 18
17 17 17 17 17 17 17 17 17 17 17 17 17 17 17 17 17 17 17 18 18 18 18 18 18 18 18 18 18 18 18 17 17 17 17 17 18 18 18 18 18 18 18
16 16 17 17 17 17 17 17 17 17 17 17 17 17 17 17 17 17 17 18 18 18 18 18 18 18 18 17 17 18 18 17 17 17 17 18 18 18 18 18 18 18 18
16 16 16 16 16 16 16 16 16 17 17 17 17 17 17 17 17 17 17 17 17 17 17 17 17 17 17 17 17 17 17 18 18 18 17 18 18 18 18 17 17 18 18
15 15 15 15 15 15 15 15 16 16 16 16 16 17 17 17 17 17 17 17 17 17 17 17 17 17 17 17 17 18 18 17 18 18 17 18 18 18 17 17 17 18 18
15 14 14 14 14 14 14 15 15 15 15 16 16 16 16 16 17 17 17 17 17 17 17 17 17 17 17 17 17 18 18 18 18 18 17 18 18 17 17 17 17 17 17
15 14 14 14 14 14 14 14 14 15 15 15 15 15 16 16 16 17 17 17 17 17 17 17 17 17 17 17 17 17 17 18 18 18 17 17 18 18 17 17 17 17 17
14 14 13 13 13 13 13 14 14 14 14 15 15 15 15 15 16 16 16 17 17 17 17 17 17 17 17 17 17 17 17 17 17 18 18 17 17 18 18 17 17 17 17
14 13 13 13 13 13 13 13 14 14 14 14 14 14 15 15 15 15 16 16 16 17 17 17 17 17 17 17 17 17 17 17 17 18 18 18 18 17 17 18 17 17 17
13 13 13 12 12 13 13 13 13 13 13 13 14 14 14 14 15 15 15 16 16 16 16 16 17 17 17 17 17 17 17 17 18 18 18 18 18 17 17 17 18 17 17
13 13 13 12 12 12 13 13 13 13 13 13 13 14 14 14 14 14 15 15 15 16 16 16 16 16 17 17 17 17 17 17 17 18 18 18 18 18 18 17 17 17 17
13 13 12 12 12 12 12 13 13 13 13 13 13 13 13 14 14 14 14 15 15 15 16 16 16 16 16 16 16 16 17 17 17 18 18 18 18 18 18 17 17 17 17
13 13 12 12 12 12 12 12 12 12 12 12 13 13 13 13 13 14 14 14 15 15 15 15 16 16 16 16 16 16 16 17 17 17 17 18 18 18 18 18 18 17 17
13 12 12 12 12 12 12 12 12 12 12 12 12 13 13 13 13 13 13 14 14 14 15 15 15 15 16 16 16 16 16 16 17 17 18 18 18 18 18 18 18 18 17
13 12 12 12 12 12 12 12 12 12 12 12 12 12 12 13 13 13 13 14 14 14 14 14 15 15 15 15 15 15 16 16 16 17 17 18 18 18 18 18 18 18 17
13 12 12 12 12 11 11 11 12 11 12 12 12 12 12 12 13 13 13 13 14 14 14 14 14 15 15 15 15 15 15 15 16 16 16 17 17 17 18 18 17 17 17
13 12 12 12 11 11 11 11 11 11 11 11 11 12 12 12 12 12 13 13 13 14 14 14 14 14 14 15 15 15 15 15 15 16 16 16 17 17 17 17 17 17 17
Wind_Speed
7 9 11 10 10 9 8 8 8 7 7 8 8 8 8 7 6 5 4 4 3 3 3 3 3 3 4 4 4 4 5 6 6 6 6 6 6 6 6 5 3 8 8
7 9 11 9 9 9 8 8 7 7 7 7 7 7 7 6 5 5 4 3 3 2 2 2 2 3 3 3 3 3 4 4 5 5 3 5 6 5 5 4 4 7 7
7 8 9 8 8 8 8 8 7 7 7 7 7 7 6 6 5 5 4 3 3 2 2 1 2 2 2 3 3 3 3 3 4 2 3 3 6 5 4 4 5 6 6
6 6 6 7 7 7 7 7 7 7 7 7 7 7 6 6 6 6 5 4 4 3 2 2 1 1 1 2 2 2 3 2 2 3 1 4 4 7 4 4 4 5 5
4 4 4 3 4 5 5 6 7 7 7 7 7 8 7 7 7 7 6 5 5 4 3 2 2 1 1 1 2 2 2 2 1 4 3 3 4 6 3 3 4 5 5
4 4 4 2 1 2 4 5 6 7 8 8 9 9 9 9 8 8 7 7 6 5 4 3 2 2 1 1 1 1 2 1 5 1 2 1 4 5 3 3 3 4 5
5 5 5 7 5 3 3 4 6 7 8 9 10 10 10 10 10 9 9 8 7 6 5 4 3 3 2 1 0 1 1 2 3 0 1 1 4 4 2 2 3 3 4
7 7 7 8 8 8 7 6 7 8 8 10 11 11 11 11 11 10 10 9 8 7 6 6 5 4 3 2 1 1 1 5 3 1 0 1 4 2 2 2 3 3 4
8 8 8 8 7 6 7 8 8 8 9 10 12 12 12 11 11 11 10 10 9 9 8 7 6 5 4 3 3 2 2 3 5 2 2 1 4 1 2 2 2 3 4
8 8 8 8 9 8 8 7 9 9 10 10 11 12 12 12 13 12 12 12 11 10 10 9 7 7 6 5 4 4 3 6 7 4 2 3 4 2 2 2 2 3 4
8 7 8 8 8 8 8 8 9 8 8 9 9 10 11 12 13 12 14 10 11 12 11 10 9 8 8 8 7 5 7 8 5 5 2 5 2 3 3 3 3 3 4
9 8 8 8 8 8 8 7 7 7 7 7 7 8 9 10 10 10 7 9 12 13 13 12 11 10 12 10 11 10 9 8 7 5 3 4 3 4 4 4 4 4 4
8 8 8 8 8 8 7 7 6 6 6 7 7 7 8 9 9 9 8 9 12 13 13 12 13 12 11 9 7 9 8 7 7 6 5 6 4 5 5 5 5 5 5
9 10 9 9 9 8 8 7 7 6 6 6 7 8 8 6 7 7 7 8 8 9 9 10 9 10 11 10 10 10 9 8 7 6 5 7 5 6 7 7 6 6 6
10 10 11 11 10 9 8 7 7 6 7 8 7 8 9 7 7 7 6 7 8 9 9 9 9 9 9 9 9 9 9 9 9 8 6 8 7 7 8 8 8 8 7
11 11 11 11 10 10 9 8 8 8 7 8 8 9 9 8 8 7 7 7 7 8 9 8 9 8 8 7 9 9 9 9 10 9 8 9 11 9 9 9 9 9 9
11 12 11 11 11 10 10 9 8 8 9 8 8 9 9 9 9 8 8 7 7 9 9 8 9 7 7 7 9 10 9 9 9 10 9 8 9 13 12 10 10 10 10
11 11 11 10 11 10 9 9 8 8 8 7 8 8 9 9 9 8 7 8 8 7 6 6 6 6 7 7 7 8 8 8 11 10 10 10 9 8 12 13 11 11 11
10 11 11 11 11 10 10 8 8 7 7 7 7 7 8 9 9 8 7 7 7 6 6 7 6 7 7 7 7 7 8 8 10 10 11 12 11 9 9 13 13 12 12
10 10 11 11 10 10 8 8 7 7 6 6 6 6 7 8 8 8 7 7 7 6 6 6 7 7 6 7 7 7 7 8 9 9 10 10 10 12 10 9 11 13 14
10 11 11 11 11 9 8 8 7 7 7 6 6 6 7 7 8 7 7 7 6 7 7 8 7 8 6 6 5 5 6 9 10 8 9 9 11 11 11 11 10 10 12
10 11 11 11 11 10 8 8 6 7 7 6 6 6 7 7 6 6 7 7 7 7 8 8 8 7 6 6 5 4 4 6 8 10 9 9 11 10 11 12 12 11 10
10 10 10 11 10 10 10 7 7 6 5 5 6 6 6 6 6 6 6 7 7 7 7 8 8 9 7 7 7 5 4 6 5 8 11 11 11 9 10 11 12 12 12
9 10 10 11 11 10 10 8 9 7 7 7 7 6 6 6 6 5 6 6 6 6 7 8 8 8 8 7 7 6 5 2 3 5 7 10 12 11 11 10 11 11 12
8 8 9 10 10 10 10 9 9 8 7 7 7 7 7 5 6 6 5 5 6 6 7 8 8 8 8 9 7 6 6 5 5 4 5 7 9 10 11 11 10 10 11
7 7 8 9 9 9 10 9 9 9 9 9 8 7 6 5 5 6 6 5 6 6 7 7 8 9 9 10 9 8 7 6 7 6 6 5 6 7 9 9 9 9 10
Wind_Direction
155 154 147 164 163 160 157 154 153 152 152 151 151 153 157 160 162 162 156 152 145 130 118 111 102 95 92 90 89 86 82 79 77 73 76 84 87 91 94 101 132 104 94
150 152 147 167 167 166 166 165 166 167 168 166 166 168 169 172 174 175 176 175 166 148 130 116 103 93 88 88 86 85 85 82 81 76 83 114 102 94 98 87 36 86 103
150 152 158 171 173 174 175 178 181 184 185 185 185 185 185 189 193 196 198 198 192 181 167 142 121 101 88 83 76 75 84 89 84 93 246 117 110 101 102 104 95 101 107
145 154 158 157 182 186 188 193 196 198 199 200 200 200 202 205 209 211 213 215 214 211 203 189 162 130 100 82 69 70 76 89 91 248 232 70 92 98 102 108 106 113 113
123 128 115 151 189 198 203 207 210 212 212 214 215 216 217 217 218 218 220 224 225 224 218 211 201 171 132 92 72 74 78 89 191 258 62 63 77 94 98 105 113 119 122
97 87 87 72 164 220 232 233 230 230 229 229 228 227 225 224 225 227 227 228 227 226 224 221 219 208 176 119 81 75 83 129 240 84 76 74 86 99 99 104 116 130 131
62 52 53 44 25 359 307 280 263 252 247 243 238 234 231 230 230 230 232 231 228 228 230 230 228 218 200 170 129 87 102 261 273 119 118 89 77 92 106 108 117 132 140
41 34 29 41 29 18 359 333 303 283 270 262 255 247 241 238 236 235 236 234 230 230 234 235 229 225 218 213 221 241 254 274 226 231 169 111 84 105 123 127 127 131 140
39 28 15 5 4 7 3 351 336 313 291 276 266 257 250 246 242 241 240 235 232 232 232 232 229 229 228 229 234 243 251 286 271 250 232 133 115 155 135 130 137 140 134
37 23 8 359 351 344 338 338 334 327 310 294 279 266 256 249 243 241 241 232 234 236 233 229 229 231 233 233 233 236 241 246 243 241 235 127 138 187 166 145 140 139 136
31 19 7 357 352 345 335 336 327 315 310 302 290 275 264 256 248 235 236 230 235 239 238 231 227 229 234 223 223 229 237 242 224 245 225 105 178 208 189 175 167 151 145
18 8 2 354 346 342 335 326 315 305 298 294 294 291 274 264 261 258 245 233 240 242 240 235 230 227 233 226 202 206 230 226 232 227 177 136 216 216 201 188 180 170 158
360 356 350 340 334 329 319 312 311 301 290 281 283 283 280 274 266 258 251 235 235 235 237 223 222 227 227 230 233 222 229 233 231 225 173 155 212 216 206 195 189 182 171
354 349 342 335 326 320 315 310 301 296 292 281 275 276 272 265 261 258 251 248 246 241 238 236 232 229 232 231 227 232 223 226 230 226 173 162 210 217 211 201 196 192 187
347 342 340 333 330 327 321 307 299 295 291 286 277 271 265 262 259 253 254 251 248 246 239 237 236 232 234 238 239 239 235 227 229 221 194 174 205 219 218 208 202 198 194
345 341 339 334 331 325 319 310 304 299 292 285 278 274 272 266 263 258 254 251 250 250 250 246 240 237 237 238 240 238 242 236 233 225 222 191 197 211 217 215 208 202 198
344 342 343 334 332 328 323 317 307 299 294 288 283 280 276 272 269 265 260 254 249 246 245 245 243 239 234 232 234 235 233 237 237 229 220 221 204 198 207 213 211 207 202
344 344 342 338 335 332 327 319 311 306 302 295 289 283 279 275 272 272 263 259 254 249 241 237 234 229 228 226 230 227 227 223 232 233 225 217 217 207 195 199 205 209 206
345 344 344 343 338 335 329 320 316 311 307 301 295 291 286 280 275 270 265 263 260 250 243 240 231 225 228 222 225 231 234 230 228 226 228 224 212 210 206 179 195 205 207
348 346 347 344 343 340 335 328 326 321 317 311 303 299 297 288 280 276 265 258 253 247 243 239 239 228 228 220 226 231 234 236 230 228 233 229 223 212 213 196 195 200 204
352 350 350 348 349 347 343 337 334 331 324 321 314 316 305 296 287 276 270 261 251 246 243 240 237 231 222 212 214 229 239 242 238 226 230 231 224 218 212 207 210 202 195
353 352 350 350 349 347 344 333 323 320 317 321 318 318 317 310 297 281 273 268 256 251 246 240 233 232 220 203 203 204 227 230 232 230 224 229 231 213 219 217 209 207 209
353 352 349 349 347 349 345 337 331 330 323 330 330 327 324 321 308 293 284 278 269 257 250 244 236 232 227 212 209 203 207 220 219 220 221 220 226 222 216 221 218 210 209
350 348 348 351 351 351 347 345 344 339 335 330 328 326 327 329 326 312 293 281 273 265 257 250 239 237 232 222 216 220 225 215 214 216 216 221 219 219 220 218 221 220 211
347 346 347 351 355 355 351 349 343 344 336 332 331 333 332 336 334 329 314 297 286 275 266 259 251 241 234 227 215 208 215 220 231 225 215 215 217 219 219 220 217 218 216
346 347 348 353 358 358 353 351 350 347 343 341 342 339 338 336 335 335 325 311 299 288 277 267 255 244 239 234 226 215 208 208 212 217 224 219 217 217 217 220 220 215 213
Height
1552 1552 1552 1553 1555 1556 1557 1558 1559 1559 1560 1560 1561 1561 1561 1561 1561 1562 1562 1562 1561 1561 1561 1561 1560 1560 1560 1559 1558 1558 1557 1556 1556 1555 1554 1554 1553 1553 1553 1552 1553 1553 1552
1554 1554 1553 1554 1556 1557 1558 1558 1559 1560 1560 1561 1561 1561 1562 1562 1562 1562 1562 1562 1562 1562 1561 1561 1561 1561 1560 1560 1559 1559 1558 1558 1557 1556 1555 1555 1554 1554 1554 1553 1553 1554 1553
1554 1555 1555 1556 1556 1557 1558 1559 1560 1560 1561 1561 1561 1561 1562 1562 1562 1562 1562 1562 1562 1562 1561 1561 1561 1561 1561 1560 1560 1560 1559 1559 1558 1557 1557 1558 1556 1555 1555 1554 1554 1554 1554
1556 1556 1557 1556 1557 1558 1559 1559 1560 1560 1560 1561 1561 1561 1561 1561 1562 1562 1562 1562 1562 1561 1561 1561 1561 1561 1561 1561 1560 1560 1560 1559 1559 1558 1560 1559 1558 1556 1556 1555 1555 1555 1555
1557 1557 1557 1557 1558 1558 1559 1559 1560 1560 1560 1560 1561 1561 1561 1561 1561 1561 1561 1561 1561 1561 1561 1561 1561 1561 1561 1561 1561 1560 1560 1560 1559 1559 1560 1559 1558 1557 1556 1556 1556 1556 1556
1557 1557 1557 1557 1557 1558 1558 1559 1559 1559 1559 1560 1560 1560 1560 1560 1560 1560 1560 1560 1560 1560 1560 1560 1560 1560 1560 1560 1560 1560 1560 1560 1560 1561 1560 1559 1559 1557 1557 1557 1557 1557 1557
1558 1557 1557 1557 1557 1557 1557 1558 1558 1558 1558 1558 1559 1559 1559 1559 1558 1558 1559 1559 1559 1559 1559 1559 1559 1559 1559 1560 1560 1560 1560 1560 1561 1561 1560 1560 1559 1558 1558 1557 1557 1557 1558
1557 1557 1557 1556 1556 1556 1556 1557 1557 1557 1557 1557 1557 1557 1557 1557 1557 1557 1557 1557 1558 1558 1558 1558 1558 1558 1559 1559 1559 1559 1560 1560 1561 1562 1560 1560 1559 1558 1558 1558 1558 1558 1558
1557 1556 1556 1556 1556 1555 1555 1555 1555 1555 1554 1555 1555 1555 1555 1555 1555 1555 1555 1556 1556 1556 1556 1557 1557 1557 1557 1558 1558 1558 1559 1559 1560 1561 1561 1560 1559 1558 1558 1558 1558 1558 1559
1557 1556 1555 1555 1554 1554 1553 1553 1552 1552 1552 1552 1552 1553 1552 1552 1552 1552 1553 1553 1554 1554 1554 1555 1555 1556 1556 1556 1557 1557 1558 1559 1560 1560 1561 1560 1559 1558 1558 1558 1559 1559 1559
1558 1556 1555 1554 1553 1551 1551 1550 1549 1549 1549 1549 1549 1549 1549 1549 1550 1550 1550 1551 1551 1552 1552 1553 1553 1554 1554 1555 1555 1555 1557 1559 1559 1560 1560 1559 1558 1558 1558 1558 1559 1559 1559
1558 1557 1555 1553 1551 1550 1548 1547 1546 1546 1546 1546 1546 1546 1546 1547 1547 1548 1548 1548 1548 1549 1550 1551 1551 1551 1552 1554 1554 1554 1556 1557 1558 1559 1559 1558 1558 1558 1558 1558 1558 1559 1559
1559 1556 1554 1552 1550 1548 1546 1545 1544 1543 1542 1542 1542 1542 1542 1543 1543 1544 1544 1545 1545 1546 1547 1548 1549 1550 1551 1553 1554 1554 1555 1556 1557 1558 1558 1557 1557 1557 1557 1558 1558 1559 1559
1558 1555 1553 1551 1549 1546 1544 1543 1541 1540 1539 1538 1538 1538 1538 1539 1539 1540 1540 1541 1542 1543 1544 1545 1546 1548 1549 1551 1552 1553 1554 1554 1555 1556 1556 1555 1556 1556 1557 1557 1558 1558 1559
1557 1554 1551 1548 1547 1545 1542 1540 1539 1537 1536 1535 1534 1534 1534 1535 1535 1536 1536 1537 1539 1540 1541 1542 1543 1545 1546 1547 1549 1550 1552 1552 1553 1554 1555 1554 1555 1555 1556 1556 1557 1558 1558
1555 1552 1549 1546 1544 1542 1540 1538 1536 1534 1532 1531 1531 1530 1530 1530 1531 1531 1532 1532 1534 1536 1537 1538 1539 1541 1542 1544 1545 1547 1548 1550 1551 1552 1553 1553 1553 1554 1554 1555 1556 1557 1557
1554 1551 1547 1544 1542 1540 1537 1535 1533 1531 1529 1528 1527 1526 1526 1526 1526 1527 1527 1528 1529 1531 1532 1534 1535 1536 1538 1540 1542 1544 1545 1547 1548 1550 1551 1552 1553 1552 1553 1553 1554 1555 1556
1552 1549 1546 1543 1540 1537 1534 1531 1530 1528 1526 1525 1523 1522 1522 1522 1522 1522 1523 1524 1525 1526 1527 1529 1531 1532 1534 1536 1538 1540 1542 1543 1545 1547 1548 1550 1551 1552 1552 1552 1552 1554 1555
1551 1548 1545 1541 1538 1535 1532 1529 1527 1525 1523 1521 1520 1519 1518 1518 1518 1518 1518 1519 1521 1521 1523 1524 1526 1528 1530 1532 1534 1536 1538 1540 1542 1544 1545 1547 1549 1549 1551 1550 1551 1552 1553
1550 1547 1544 1540 1536 1533 1530 1528 1525 1523 1521 1519 1517 1516 1515 1514 1514 1515 1514 1515 1516 1517 1518 1520 1522 1523 1525 1528 1530 1532 1534 1536 1538 1540 1542 1544 1546 1547 1549 1549 1549 1550 1551
1549 1546 1543 1539 1536 1532 1529 1526 1523 1521 1519 1517 1515 1513 1512 1511 1511 1511 1511 1512 1512 1513 1514 1516 1517 1519 1520 1523 1526 1527 1529 1532 1534 1536 1538 1540 1542 1544 1546 1547 1548 1549 1549
1549 1545 1542 1538 1535 1531 1528 1525 1522 1519 1517 1514 1512 1511 1509 1508 1507 1507 1508 1508 1508 1509 1510 1511 1513 1514 1516 1518 1520 1523 1525 1528 1528 1531 1533 1535 1538 1540 1542 1544 1546 1547 1548
1548 1545 1541 1538 1534 1530 1527 1524 1521 1518 1515 1513 1511 1508 1507 1506 1505 1504 1504 1504 1505 1505 1506 1507 1508 1510 1511 1513 1516 1519 1520 1521 1524 1526 1529 1531 1534 1536 1538 1540 1542 1544 1545
1548 1544 1541 1537 1534 1530 1526 1523 1520 1517 1514 1511 1509 1507 1505 1504 1502 1501 1501 1501 1501 1501 1502 1503 1504 1505 1507 1508 1510 1513 1515 1517 1520 1521 1524 1526 1528 1531 1533 1536 1538 1540 1542
1547 1543 1540 1537 1533 1529 1526 1522 1519 1516 1513 1510 1508 1505 1504 1502 1500 1499 1499 1498 1498 1498 1498 1499 1500 1501 1502 1504 1505 1507 1510 1512 1515 1517 1518 1521 1523 1526 1529 1531 1533 1536 1538
1546 1543 1540 1537 1533 1529 1526 1522 1519 1516 1512 1510 1507 1504 1503 1501 1499 1498 1497 1496 1495 1495 1495 1495 1496 1496 1497 1499 1501 1503 1504 1506 1508 1511 1513 1515 1518 1520 1523 1526 1528 1531 1533